FALCON 9 R/B, 43464

Orbit data source: Space-Track

FALCON 9 R/B, 43464 is space debris in HEO originally from a launch on Fri, 11 May 2018 UTC launched from the Air Force Eastern Test Range (AFETR). Debris objects in space refer to the collection of defunct objects orbiting the Earth. Examples of debris include non-operational satellites, rocket bodies, and fragments generated from explosions, collisions, or faulty payload assembly.

Loading next visibility...
Identifier
43464, 2018-044B
Orbit
HEO
Country
Flag of USUS
Related business
Manufacturer
SpaceX
Mission
Spacecraft
Bus & Motor
F9ST2, Unknown motor
Mass
~4,000 kg wet, ~4,000 kg dry
Launch date (UTC)
2018-05-11 (8 years ago)
Launch vehicle
Unknown
Launch site
Air Force Eastern Test Range (AFETR)
Object type
Payload
Rocket body
Debris
Shape & HBR
Cyl, 7.8 m
Radar Cross Section
39.980 m², Large (>1 m²)

Expand to show TLE details & history
Last TLE update: 3 days ago

TLE from 3 days ago
0 FALCON 9 R/B
1 43464U 18044B   26170.43383999  .00010505  00000-0  20541-2 0  9997
2 43464  18.7520 233.6041 7125689 234.9304  36.7912  2.48538948 69989
Epoch: 2026-06-19T10:24Z
TLE epoch observation values (Epoch: 2026-06-19T10:24:43.775Z)
Latitude
0.00017°
Longitude
169.85328°
Altitude
12,840.218 km
Speed
4.916 km/s
True Right ascension
15h 34m 47s
True Declination
0° 00' 01"
Sunlit
Object was in daylight at epoch
Visualization orbit readout
Latitude
Unknown
Longitude
Unknown
Altitude
Unknown
Speed
Unknown
Apparent Right ascension
Unknown
Apparent Declination
Unknown
Sunlit
N/A
Visualization observer readout
Local Sidereal Time
21:30:42
Azimuth
Unknown
Elevation
Unknown
Doppler factor
Unknown
Orbital elements
Apogee altitude
33,056.286 km
Perigee altitude
240.388 km
Semi-major axis
23,026.474 km
Eccentricity
0.71257
Inclination
18.752°
RAAN
233.6041°
Arg. of periapsis
234.9304°
True anomaly
125.07076°
Mean anomaly
36.7912°
Eccentric anomaly
76.4884°
Mean motion
0.62116 °/min
Orbital period
579.56 mins
BSTAR
0.0020541
Loading maneuver chart data...
Computing Atmospheric mass density...
Loading historical data...
Loading historical data...
Loading historical data...
Loading historical data...
Loading historical data...
Loading historical data...
Loading historical data...
Other satellites on launch #44 in the year 2018 (2018-05-11 UTC)

Documentation

Showing up to 5 results
|